Meteo Giornale » Osservazioni meteo Stati Uniti (USA) » Manchester

ore: 01:53 - Osservazioni Meteo Manchester
Lat. 42° 55' N Lon. 71° 26' W Alt. 71 metri s.l.m.

coperto

17 °C

Coperto

Temp. 24 Ore

16 °C

20 °C

Nord

0 Km/h

Dew point 16 °C

Umidità 93 %

Visibilità  10 Km

Il sole sorge alle ore 06:11

Il sole tramonta alle ore 19:19

Data e Ora Cielo e Fenomeni T °C DP °C Um. % Pres. hPa Vis. km Vento km/h
Oggi h: 01:53 coperto Coperto 17 16 93 1020 10 N 0
Oggi h: 00:53 coperto Coperto 17 16 93 1020 10 N 0
Oggi h: 00:29 coperto Coperto 17 16 93 1019 10 N 0
Ieri h: 23:53 coperto Coperto 18 16 88 1019 10 N 0
Ieri h: 22:53 coperto Coperto 18 16 88 1019 10 N 0
Ieri h: 21:53 coperto Coperto 18 16 88 1019 10 N 0
Ieri h: 20:53 coperto Coperto 18 16 88 1019 10 N 5.5
Ieri h: 20:27 coperto Coperto 18 16 88 1018 10 N 0
Ieri h: 19:53 coperto Coperto 18 16 88 1018 10 N 5.5
Ieri h: 18:53 coperto Coperto 18 16 88 1018 10 N 5.5
Ieri h: 18:11 coperto_pioggia Pioggia Foschia 18 17 93 1018 5 SE 7.4
Ieri h: 18:00 coperto_pioggia Pioggia Foschia 18 17 93 1018 2 N 5.5
Ieri h: 17:53 coperto_pioggia Pioggia 18 17 93 1018 5 N 0
Ieri h: 16:53 coperto Coperto 19 17 88 1017 10 N 0
Ieri h: 16:03 coperto Coperto 19 17 88 1017 10 N 7.4
Ieri h: 15:53 coperto Coperto 19 17 88 1017 10 N 5.5
Ieri h: 14:53 coperto_pioggia Pioggia 19 17 88 1017 10 N 5.5
Ieri h: 13:53 coperto Coperto 19 16 82 1017 10 N 7.4
Ieri h: 13:34 coperto Coperto 18 16 88 1017 10 N 7.4
Ieri h: 13:19 coperto_pioggia Pioggia 18 16 88 1017 10 N 7.4
Ieri h: 12:53 coperto_pioggia Pioggia 18 16 88 1017 10 N 7.4
Ieri h: 12:37 coperto_pioggia Pioggia 18 15 82 1017 10 N 7.4
Ieri h: 11:53 coperto Coperto 17 14 82 1018 10 N 5.5
Ieri h: 11:33 coperto Coperto 17 14 82 1017 10 N 0
Ieri h: 10:53 coperto_pioggia Pioggia 17 14 82 1017 10 N 9.3
Ieri h: 10:21 coperto_pioggia Pioggia 17 15 88 1017 10 N 5.5
Ieri h: 10:10 coperto_pioggia Pioggia 17 14 82 1017 10 N 0
Ieri h: 09:56 coperto_pioggia Pioggia Foschia 17 15 88 1017 10 N 0
Ieri h: 09:53 coperto_pioggia Pioggia Foschia 17 15 88 1017 10 N 7.4
Ieri h: 08:53 coperto_pioggia Pioggia Foschia 16 14 87 1018 5 NE 11.1
Ieri h: 08:12 coperto_pioggia Pioggia Foschia 18 16 88 1018 2 N 7.4
Ieri h: 07:53 coperto_pioggia Pioggia 18 16 88 1018 14 N 0
Ieri h: 06:53 coperto Coperto 19 16 82 1017 10 N 5.5
Ieri h: 05:53 coperto Coperto 18 16 88 1016 10 N 0
Ieri h: 04:53 coperto Coperto 18 16 88 1016 10 N 0
Ieri h: 03:53 coperto Coperto 18 16 88 1016 10 N 0
Ieri h: 02:53 coperto Coperto 20 15 72 1017 10 N 0